Time,TemperatureF,DewpointF,PressureIn,WindDirection,WindDirectionDegrees,WindSpeedMPH,WindSpeedGustMPH,Humidity,HourlyPrecipIn,Conditions,Clouds,dailyrainin,SoftwareType,DateUTC
2013-02-27 00:00:00,38.0,-99.9,-100.00,ESE,120,8.0,14.0,-999,-99.99,,,-99.99,,2013-02-27 05:00:00,
2013-02-27 00:22:00,38.0,-99.9,-100.00,ESE,120,8.0,14.0,-999,-99.99,,,-99.99,,2013-02-27 05:22:00,
2013-02-27 00:32:00,38.0,-99.9,-100.00,ESE,120,8.0,14.0,-999,-99.99,,,-99.99,,2013-02-27 05:32:00,
2013-02-27 00:42:00,38.0,-99.9,-100.00,ESE,120,8.0,14.0,-999,-99.99,,,-99.99,,2013-02-27 05:42:00,
2013-02-27 00:52:00,38.0,-99.9,-100.00,ESE,120,8.0,14.0,-999,-99.99,,,-99.99,,2013-02-27 05:52:00,
2013-02-27 01:22:00,39.0,-99.9,-100.00,SE,130,10.0,15.0,-999,-99.99,,,-99.99,,2013-02-27 06:22:00,
2013-02-27 01:33:00,39.0,-99.9,-100.00,SE,130,10.0,15.0,-999,-99.99,,,-99.99,,2013-02-27 06:33:00,
2013-02-27 01:42:00,39.0,-99.9,-100.00,SE,130,10.0,15.0,-999,-99.99,,,-99.99,,2013-02-27 06:42:00,
2013-02-27 01:52:00,39.0,-99.9,-100.00,SE,130,10.0,15.0,-999,-99.99,,,-99.99,,2013-02-27 06:52:00,
2013-02-27 02:01:00,40.0,-99.9,-100.00,SE,130,10.0,17.0,-999,-99.99,,,-99.99,,2013-02-27 07:01:00,
2013-02-27 02:12:00,40.0,-99.9,-100.00,SE,130,10.0,17.0,-999,-99.99,,,-99.99,,2013-02-27 07:12:00,
2013-02-27 02:22:00,39.0,-99.9,-100.00,SE,130,9.0,15.0,-999,-99.99,,,-99.99,,2013-02-27 07:22:00,
2013-02-27 02:32:00,39.0,-99.9,-100.00,SE,130,9.0,15.0,-999,-99.99,,,-99.99,,2013-02-27 07:32:00,
2013-02-27 02:42:00,39.0,-99.9,-100.00,SE,130,9.0,15.0,-999,-99.99,,,-99.99,,2013-02-27 07:42:00,
2013-02-27 02:52:00,39.0,-99.9,-100.00,SE,130,9.0,15.0,-999,-99.99,,,-99.99,,2013-02-27 07:52:00,
2013-02-27 03:01:00,39.0,-99.9,-100.00,SSE,150,15.0,25.0,-999,-99.99,,,-99.99,,2013-02-27 08:01:00,
2013-02-27 03:12:00,39.0,-99.9,-100.00,SSE,150,15.0,25.0,-999,-99.99,,,-99.99,,2013-02-27 08:12:00,
2013-02-27 03:22:00,39.0,-99.9,-100.00,SSE,150,14.0,20.0,-999,-99.99,,,-99.99,,2013-02-27 08:22:00,
2013-02-27 03:32:00,39.0,-99.9,-100.00,SSE,150,14.0,20.0,-999,-99.99,,,-99.99,,2013-02-27 08:32:00,
2013-02-27 03:42:00,39.0,-99.9,-100.00,SSE,150,14.0,20.0,-999,-99.99,,,-99.99,,2013-02-27 08:42:00,
2013-02-27 03:53:00,39.0,-99.9,-100.00,SSE,150,14.0,20.0,-999,-99.99,,,-99.99,,2013-02-27 08:53:00,
2013-02-27 04:02:00,39.0,-99.9,-100.00,SSE,160,14.0,22.0,-999,-99.99,,,-99.99,,2013-02-27 09:02:00,
2013-02-27 04:12:00,39.0,-99.9,-100.00,SSE,160,14.0,22.0,-999,-99.99,,,-99.99,,2013-02-27 09:12:00,
2013-02-27 04:22:00,39.0,-99.9,-100.00,SSE,160,18.0,24.0,-999,-99.99,,,-99.99,,2013-02-27 09:22:00,
2013-02-27 04:32:00,39.0,-99.9,-100.00,SSE,160,18.0,24.0,-999,-99.99,,,-99.99,,2013-02-27 09:32:00,
2013-02-27 04:42:00,39.0,-99.9,-100.00,SSE,160,18.0,24.0,-999,-99.99,,,-99.99,,2013-02-27 09:42:00,
2013-02-27 04:52:00,39.0,-99.9,-100.00,SSE,160,18.0,24.0,-999,-99.99,,,-99.99,,2013-02-27 09:52:00,
2013-02-27 05:00:00,37.0,-99.9,-100.00,SSE,160,18.0,23.0,-999,-99.99,,,-99.99,,2013-02-27 10:00:00,
2013-02-27 05:01:00,37.0,-99.9,-100.00,SSE,160,20.0,25.0,-999,-99.99,,,-99.99,,2013-02-27 10:01:00,
2013-02-27 05:12:00,37.0,-99.9,-100.00,SSE,160,20.0,25.0,-999,-99.99,,,-99.99,,2013-02-27 10:12:00,
2013-02-27 05:22:00,37.0,-99.9,-100.00,SSE,160,18.0,23.0,-999,-99.99,,,-99.99,,2013-02-27 10:22:00,
2013-02-27 05:32:00,37.0,-99.9,-100.00,SSE,160,18.0,23.0,-999,-99.99,,,-99.99,,2013-02-27 10:32:00,
2013-02-27 05:42:00,37.0,-99.9,-100.00,SSE,160,18.0,23.0,-999,-99.99,,,-99.99,,2013-02-27 10:42:00,
2013-02-27 05:53:00,37.0,-99.9,-100.00,SSE,160,18.0,23.0,-999,-99.99,,,-99.99,,2013-02-27 10:53:00,
2013-02-27 06:00:00,36.0,-99.9,-100.00,South,170,15.0,22.0,-999,-99.99,,,-99.99,,2013-02-27 11:00:00,
2013-02-27 06:22:00,36.0,-99.9,-100.00,South,170,15.0,22.0,-999,-99.99,,,-99.99,,2013-02-27 11:22:00,
2013-02-27 06:32:00,36.0,-99.9,-100.00,South,170,15.0,22.0,-999,-99.99,,,-99.99,,2013-02-27 11:32:00,
2013-02-27 06:42:00,36.0,-99.9,-100.00,South,170,15.0,22.0,-999,-99.99,,,-99.99,,2013-02-27 11:42:00,
2013-02-27 06:52:00,36.0,-99.9,-100.00,South,170,15.0,22.0,-999,-99.99,,,-99.99,,2013-02-27 11:52:00,
2013-02-27 07:00:00,36.0,-99.9,-100.00,South,170,15.0,18.0,-999,-99.99,,,-99.99,,2013-02-27 12:00:00,
2013-02-27 07:22:00,36.0,-99.9,-100.00,South,170,15.0,18.0,-999,-99.99,,,-99.99,,2013-02-27 12:22:00,
2013-02-27 07:33:00,36.0,-99.9,-100.00,South,170,15.0,18.0,-999,-99.99,,,-99.99,,2013-02-27 12:33:00,
2013-02-27 07:42:00,36.0,-99.9,-100.00,South,170,15.0,18.0,-999,-99.99,,,-99.99,,2013-02-27 12:42:00,
2013-02-27 07:53:00,36.0,-99.9,-100.00,South,170,15.0,18.0,-999,-99.99,,,-99.99,,2013-02-27 12:53:00,
2013-02-27 08:22:00,36.0,-99.9,-100.00,South,190,11.0,17.0,-999,-99.99,,,-99.99,,2013-02-27 13:22:00,
2013-02-27 08:32:00,36.0,-99.9,-100.00,South,190,11.0,17.0,-999,-99.99,,,-99.99,,2013-02-27 13:32:00,
2013-02-27 08:42:00,36.0,-99.9,-100.00,South,190,13.0,20.0,-999,-99.99,,,-99.99,,2013-02-27 13:42:00,
2013-02-27 08:53:00,36.0,-99.9,-100.00,South,190,13.0,20.0,-999,-99.99,,,-99.99,,2013-02-27 13:53:00,
2013-02-27 09:02:00,36.0,-99.9,-100.00,South,190,13.0,20.0,-999,-99.99,,,-99.99,,2013-02-27 14:02:00,
2013-02-27 09:12:00,36.0,-99.9,-100.00,South,190,13.0,20.0,-999,-99.99,,,-99.99,,2013-02-27 14:12:00,
2013-02-27 09:22:00,37.0,-99.9,-100.00,South,190,11.0,15.0,-999,-99.99,,,-99.99,,2013-02-27 14:22:00,
2013-02-27 09:32:00,37.0,-99.9,-100.00,South,190,11.0,15.0,-999,-99.99,,,-99.99,,2013-02-27 14:32:00,
2013-02-27 09:42:00,37.0,-99.9,-100.00,South,190,11.0,15.0,-999,-99.99,,,-99.99,,2013-02-27 14:42:00,
2013-02-27 09:53:00,38.0,-99.9,-100.00,SSW,210,13.0,17.0,-999,-99.99,,,-99.99,,2013-02-27 14:53:00,
2013-02-27 10:02:00,38.0,-99.9,-100.00,SSW,210,13.0,17.0,-999,-99.99,,,-99.99,,2013-02-27 15:02:00,
2013-02-27 10:13:00,38.0,-99.9,-100.00,SSW,210,13.0,17.0,-999,-99.99,,,-99.99,,2013-02-27 15:13:00,
2013-02-27 10:23:00,39.0,-99.9,-100.00,SSW,210,10.0,14.0,-999,-99.99,,,-99.99,,2013-02-27 15:23:00,
2013-02-27 10:32:00,39.0,-99.9,-100.00,SSW,210,10.0,14.0,-999,-99.99,,,-99.99,,2013-02-27 15:32:00,
2013-02-27 10:42:00,39.0,-99.9,-100.00,SSW,210,10.0,14.0,-999,-99.99,,,-99.99,,2013-02-27 15:42:00,
2013-02-27 10:52:00,39.0,-99.9,-100.00,SW,220,10.0,14.0,-999,-99.99,,,-99.99,,2013-02-27 15:52:00,
2013-02-27 11:02:00,39.0,-99.9,-100.00,SW,220,10.0,14.0,-999,-99.99,,,-99.99,,2013-02-27 16:02:00,
2013-02-27 11:12:00,39.0,-99.9,-100.00,SW,220,10.0,14.0,-999,-99.99,,,-99.99,,2013-02-27 16:12:00,
2013-02-27 11:22:00,40.0,-99.9,-100.00,SSW,210,8.0,9.0,-999,-99.99,,,-99.99,,2013-02-27 16:22:00,
2013-02-27 11:32:00,40.0,-99.9,-100.00,SSW,210,8.0,9.0,-999,-99.99,,,-99.99,,2013-02-27 16:32:00,
2013-02-27 11:42:00,40.0,-99.9,-100.00,SW,220,8.0,13.0,-999,-99.99,,,-99.99,,2013-02-27 16:42:00,
2013-02-27 11:52:00,40.0,-99.9,-100.00,SW,220,8.0,13.0,-999,-99.99,,,-99.99,,2013-02-27 16:52:00,
2013-02-27 12:02:00,40.0,-99.9,-100.00,SW,220,8.0,13.0,-999,-99.99,,,-99.99,,2013-02-27 17:02:00,
2013-02-27 12:11:00,40.0,-99.9,-100.00,SW,220,8.0,13.0,-999,-99.99,,,-99.99,,2013-02-27 17:11:00,
2013-02-27 12:22:00,41.0,-99.9,-100.00,WSW,240,9.0,11.0,-999,-99.99,,,-99.99,,2013-02-27 17:22:00,
2013-02-27 12:32:00,41.0,-99.9,-100.00,WSW,240,9.0,11.0,-999,-99.99,,,-99.99,,2013-02-27 17:32:00,
2013-02-27 12:42:00,41.0,-99.9,-100.00,SW,230,9.0,11.0,-999,-99.99,,,-99.99,,2013-02-27 17:42:00,
2013-02-27 12:52:00,41.0,-99.9,-100.00,SW,230,9.0,11.0,-999,-99.99,,,-99.99,,2013-02-27 17:52:00,
2013-02-27 13:02:00,41.0,-99.9,-100.00,SW,230,9.0,11.0,-999,-99.99,,,-99.99,,2013-02-27 18:02:00,
2013-02-27 13:11:00,41.0,-99.9,-100.00,SW,230,9.0,11.0,-999,-99.99,,,-99.99,,2013-02-27 18:11:00,
2013-02-27 13:22:00,41.0,-99.9,-100.00,SW,230,6.0,8.0,-999,-99.99,,,-99.99,,2013-02-27 18:22:00,
2013-02-27 13:32:00,41.0,-99.9,-100.00,SW,230,6.0,8.0,-999,-99.99,,,-99.99,,2013-02-27 18:32:00,
2013-02-27 13:42:00,41.0,-99.9,-100.00,WSW,240,6.0,10.0,-999,-99.99,,,-99.99,,2013-02-27 18:42:00,
2013-02-27 13:52:00,41.0,-99.9,-100.00,WSW,240,6.0,10.0,-999,-99.99,,,-99.99,,2013-02-27 18:52:00,
2013-02-27 14:02:00,41.0,-99.9,-100.00,WSW,240,6.0,10.0,-999,-99.99,,,-99.99,,2013-02-27 19:02:00,
2013-02-27 14:12:00,41.0,-99.9,-100.00,WSW,240,6.0,10.0,-999,-99.99,,,-99.99,,2013-02-27 19:12:00,
2013-02-27 14:22:00,38.0,-99.9,-100.00,NW,310,7.0,7.0,-999,-99.99,,,-99.99,,2013-02-27 19:22:00,
2013-02-27 14:32:00,38.0,-99.9,-100.00,NW,310,7.0,7.0,-999,-99.99,,,-99.99,,2013-02-27 19:32:00,
2013-02-27 14:42:00,37.0,-99.9,-100.00,West,270,3.0,7.0,-999,-99.99,,,-99.99,,2013-02-27 19:42:00,
2013-02-27 14:52:00,37.0,-99.9,-100.00,West,270,3.0,7.0,-999,-99.99,,,-99.99,,2013-02-27 19:52:00,
2013-02-27 15:00:00,40.0,-99.9,-100.00,SW,220,5.0,7.0,-999,-99.99,,,-99.99,,2013-02-27 20:00:00,
2013-02-27 15:02:00,37.0,-99.9,-100.00,West,270,3.0,7.0,-999,-99.99,,,-99.99,,2013-02-27 20:02:00,
2013-02-27 15:12:00,37.0,-99.9,-100.00,West,270,3.0,7.0,-999,-99.99,,,-99.99,,2013-02-27 20:12:00,
2013-02-27 15:22:00,40.0,-99.9,-100.00,SW,220,5.0,7.0,-999,-99.99,,,-99.99,,2013-02-27 20:22:00,
2013-02-27 15:32:00,40.0,-99.9,-100.00,SW,220,5.0,7.0,-999,-99.99,,,-99.99,,2013-02-27 20:32:00,
2013-02-27 15:42:00,40.0,-99.9,-100.00,SW,220,5.0,7.0,-999,-99.99,,,-99.99,,2013-02-27 20:42:00,
2013-02-27 15:53:00,40.0,-99.9,-100.00,SW,220,5.0,7.0,-999,-99.99,,,-99.99,,2013-02-27 20:53:00,
2013-02-27 16:22:00,34.0,-99.9,-100.00,West,280,11.0,17.0,-999,-99.99,,,-99.99,,2013-02-27 21:22:00,
2013-02-27 16:32:00,34.0,-99.9,-100.00,West,280,11.0,17.0,-999,-99.99,,,-99.99,,2013-02-27 21:32:00,
2013-02-27 16:42:00,34.0,-99.9,-100.00,West,280,11.0,17.0,-999,-99.99,,,-99.99,,2013-02-27 21:42:00,
2013-02-27 16:52:00,33.0,-99.9,-100.00,West,260,8.0,23.0,-999,-99.99,,,-99.99,,2013-02-27 21:52:00,
2013-02-27 17:02:00,33.0,-99.9,-100.00,West,260,8.0,23.0,-999,-99.99,,,-99.99,,2013-02-27 22:02:00,
2013-02-27 17:12:00,33.0,-99.9,-100.00,West,260,8.0,23.0,-999,-99.99,,,-99.99,,2013-02-27 22:12:00,
2013-02-27 17:22:00,33.0,-99.9,-100.00,West,260,8.0,10.0,-999,-99.99,,,-99.99,,2013-02-27 22:22:00,
2013-02-27 17:32:00,33.0,-99.9,-100.00,West,260,8.0,10.0,-999,-99.99,,,-99.99,,2013-02-27 22:32:00,
2013-02-27 17:42:00,33.0,-99.9,-100.00,West,280,7.0,10.0,-999,-99.99,,,-99.99,,2013-02-27 22:42:00,
2013-02-27 17:52:00,33.0,-99.9,-100.00,West,280,7.0,10.0,-999,-99.99,,,-99.99,,2013-02-27 22:52:00,
2013-02-27 18:02:00,33.0,-99.9,-100.00,West,280,7.0,10.0,-999,-99.99,,,-99.99,,2013-02-27 23:02:00,
2013-02-27 18:12:00,33.0,-99.9,-100.00,West,280,7.0,10.0,-999,-99.99,,,-99.99,,2013-02-27 23:12:00,
2013-02-27 18:22:00,33.0,-99.9,-100.00,West,280,9.0,11.0,-999,-99.99,,,-99.99,,2013-02-27 23:22:00,
2013-02-27 18:32:00,33.0,-99.9,-100.00,West,280,9.0,11.0,-999,-99.99,,,-99.99,,2013-02-27 23:32:00,
2013-02-27 18:42:00,33.0,-99.9,-100.00,West,280,9.0,11.0,-999,-99.99,,,-99.99,,2013-02-27 23:42:00,
2013-02-27 18:53:00,33.0,-99.9,-100.00,West,270,9.0,11.0,-999,-99.99,,,-99.99,,2013-02-27 23:53:00,
2013-02-27 19:02:00,33.0,-99.9,-100.00,West,270,9.0,11.0,-999,-99.99,,,-99.99,,2013-02-28 00:02:00,
2013-02-27 19:13:00,33.0,-99.9,-100.00,West,270,9.0,11.0,-999,-99.99,,,-99.99,,2013-02-28 00:13:00,
2013-02-27 19:22:00,33.0,-99.9,-100.00,West,260,7.0,8.0,-999,-99.99,,,-99.99,,2013-02-28 00:22:00,
2013-02-27 19:32:00,33.0,-99.9,-100.00,West,260,7.0,8.0,-999,-99.99,,,-99.99,,2013-02-28 00:32:00,
2013-02-27 19:42:00,33.0,-99.9,-100.00,West,260,7.0,8.0,-999,-99.99,,,-99.99,,2013-02-28 00:42:00,
2013-02-27 19:52:00,33.0,-99.9,-100.00,West,260,7.0,8.0,-999,-99.99,,,-99.99,,2013-02-28 00:52:00,
2013-02-27 20:01:00,33.0,-99.9,-100.00,West,260,6.0,11.0,-999,-99.99,,,-99.99,,2013-02-28 01:01:00,
2013-02-27 20:11:00,33.0,-99.9,-100.00,West,260,6.0,11.0,-999,-99.99,,,-99.99,,2013-02-28 01:11:00,
2013-02-27 20:22:00,33.0,-99.9,-100.00,WSW,240,2.0,5.0,-999,-99.99,,,-99.99,,2013-02-28 01:22:00,
2013-02-27 20:32:00,33.0,-99.9,-100.00,WSW,240,2.0,5.0,-999,-99.99,,,-99.99,,2013-02-28 01:32:00,
2013-02-27 20:42:00,33.0,-99.9,-100.00,WSW,240,2.0,5.0,-999,-99.99,,,-99.99,,2013-02-28 01:42:00,
2013-02-27 20:52:00,33.0,-99.9,-100.00,North,0,0.0,6.0,-999,-99.99,,,-99.99,,2013-02-28 01:52:00,
2013-02-27 21:00:00,33.0,-99.9,-100.00,NW,310,1.0,1.0,-999,-99.99,,,-99.99,,2013-02-28 02:00:00,
2013-02-27 21:02:00,33.0,-99.9,-100.00,North,0,0.0,6.0,-999,-99.99,,,-99.99,,2013-02-28 02:02:00,
2013-02-27 21:11:00,33.0,-99.9,-100.00,North,0,0.0,6.0,-999,-99.99,,,-99.99,,2013-02-28 02:11:00,
2013-02-27 21:22:00,33.0,-99.9,-100.00,NW,310,1.0,1.0,-999,-99.99,,,-99.99,,2013-02-28 02:22:00,
2013-02-27 21:32:00,33.0,-99.9,-100.00,NW,310,1.0,1.0,-999,-99.99,,,-99.99,,2013-02-28 02:32:00,
2013-02-27 21:42:00,33.0,-99.9,-100.00,NW,310,1.0,1.0,-999,-99.99,,,-99.99,,2013-02-28 02:42:00,
2013-02-27 21:52:00,33.0,-99.9,-100.00,NW,310,1.0,1.0,-999,-99.99,,,-99.99,,2013-02-28 02:52:00,
2013-02-27 22:22:00,34.0,-99.9,-100.00,SW,220,7.0,9.0,-999,-99.99,,,-99.99,,2013-02-28 03:22:00,
2013-02-27 22:32:00,34.0,-99.9,-100.00,SW,220,7.0,9.0,-999,-99.99,,,-99.99,,2013-02-28 03:32:00,
2013-02-27 22:42:00,34.0,-99.9,-100.00,SW,220,7.0,9.0,-999,-99.99,,,-99.99,,2013-02-28 03:42:00,
2013-02-27 22:52:00,34.0,-99.9,-100.00,SW,220,9.0,11.0,-999,-99.99,,,-99.99,,2013-02-28 03:52:00,
2013-02-27 23:02:00,34.0,-99.9,-100.00,SW,220,9.0,11.0,-999,-99.99,,,-99.99,,2013-02-28 04:02:00,
2013-02-27 23:11:00,34.0,-99.9,-100.00,SW,220,9.0,11.0,-999,-99.99,,,-99.99,,2013-02-28 04:11:00,
2013-02-27 23:22:00,34.0,-99.9,-100.00,SW,230,8.0,11.0,-999,-99.99,,,-99.99,,2013-02-28 04:22:00,
2013-02-27 23:32:00,34.0,-99.9,-100.00,SW,230,8.0,11.0,-999,-99.99,,,-99.99,,2013-02-28 04:32:00,
2013-02-27 23:42:00,34.0,-99.9,-100.00,SW,230,8.0,11.0,-999,-99.99,,,-99.99,,2013-02-28 04:42:00,
2013-02-27 23:52:00,34.0,-99.9,-100.00,SW,230,7.0,14.0,-999,-99.99,,,-99.99,,2013-02-28 04:52:00,